Mount Holly, NJ

9:41 AM EDT on October 21, 2019 (GMT -0400)
South Jersey Regional

Weather History for KVAY - August, 2019

Change the Weather History Date:

Saturday, August 31, 2019

  Actual Average (KPNE) Record (KPNE)
Temperature  
Mean Temperature 73 °F -  
Max Temperature 84 °F 79 °F 96 °F (2010)
Min Temperature 62 °F 62 °F 60 °F (1997)
Cooling Degree Days 8    
Growing Degree Days 23 (Base 50)    
Moisture  
Dew Point 60 °F    
Average Humidity 69    
Maximum Humidity 93    
Minimum Humidity 44    
Precipitation  
Precipitation 0.00 in - - ()
Sea Level Pressure  
Sea Level Pressure 30.19 in    
Wind  
Wind Speed 2 mph (North)    
Max Wind Speed 8 mph    
Max Gust Speed -    
Visibility 10 miles    
Events      
Averages and records for this station are not official NWS values.
T = Trace of Precipitation, MM = Missing Value Source: NWS Daily Summary

Daily Weather History Graph

Daily Weather History Graph

Search for Another Location

Airport or City:

Astronomy

Aug. 31, 2019 Rise Set
Actual Time 6:26 AM EDT 7:32 PM EDT
Civil Twilight 5:58 AM EDT 8:00 PM EDT
Nautical Twilight 5:25 AM EDT 8:33 PM EDT
Astronomical Twilight 4:50 AM EDT 9:08 PM EDT
Moon 7:39 AM EDT (8/31) 8:44 PM EDT (8/31)
Length of Visible Light 14h 02m
Length of Day
13h 06m
New Moon, 2% of the Moon is Illuminated
Aug 31
New Moon
Sep 5
First Quarter
Sep 14
Full
Sep 21
Last Quarter
Sep 28
New

Hourly Weather History & Observations

Time (EDT) Temp. Heat Index Dew Point Humidity Pressure Visibility Wind Dir Wind Speed Gust Speed Precip Events Conditions
12:54 AM 66.9 °F - 62.1 °F 84% 30.10 in 10.0 mi Calm Calm - N/A   Clear
1:54 AM 66.9 °F - 61.0 °F 81% 30.10 in 10.0 mi Calm Calm - N/A   Clear
2:54 AM 64.9 °F - 61.0 °F 87% 30.10 in 10.0 mi Calm Calm - N/A   Clear
3:54 AM 64.0 °F - 62.1 °F 93% 30.11 in 10.0 mi Calm Calm - N/A   Clear
4:54 AM 63.0 °F - 61.0 °F 93% 30.13 in 10.0 mi Calm Calm - N/A   Clear
5:54 AM 63.0 °F - 61.0 °F 93% 30.14 in 10.0 mi Calm Calm - N/A   Clear
6:54 AM 62.1 °F - 60.1 °F 93% 30.17 in 10.0 mi Calm Calm - N/A   Clear
7:54 AM 69.1 °F - 64.0 °F 84% 30.19 in 10.0 mi North 6.9 mph - N/A   Clear
8:54 AM 73.0 °F - 63.0 °F 71% 30.20 in 10.0 mi NNE 8.1 mph - N/A   Clear
9:54 AM 75.9 °F - 63.0 °F 64% 30.22 in 10.0 mi NNE 5.8 mph - N/A   Partly Cloudy
10:54 AM 77.0 °F - 61.0 °F 58% 30.22 in 10.0 mi Variable 4.6 mph - N/A   Clear
11:54 AM 80.1 °F 81.1 °F 61.0 °F 52% 30.22 in 10.0 mi North 4.6 mph - N/A   Clear
12:54 PM 81.0 °F 82.2 °F 63.0 °F 54% 30.21 in 10.0 mi Variable 4.6 mph - N/A   Clear
1:54 PM 82.0 °F 83.0 °F 62.1 °F 51% 30.20 in 10.0 mi North 6.9 mph - N/A   Clear
2:54 PM 82.9 °F 83.2 °F 60.1 °F 46% 30.20 in 10.0 mi NNW 4.6 mph - N/A   Partly Cloudy
3:54 PM 84.0 °F 84.0 °F 60.1 °F 44% 30.20 in 10.0 mi Variable 3.5 mph - N/A   Clear
4:54 PM 82.9 °F 82.8 °F 59.0 °F 44% 30.19 in 10.0 mi NNW 3.5 mph - N/A   Clear
5:54 PM 82.0 °F 82.0 °F 57.9 °F 44% 30.20 in 10.0 mi NNE 5.8 mph - N/A   Clear
6:54 PM 78.1 °F - 55.9 °F 46% 30.21 in 10.0 mi NNE 8.1 mph - N/A   Clear
7:54 PM 71.1 °F - 55.0 °F 57% 30.23 in 10.0 mi Calm Calm - N/A   Partly Cloudy
8:54 PM 68.0 °F - 55.9 °F 65% 30.25 in 10.0 mi Calm Calm - N/A   Clear
9:54 PM 64.0 °F - 57.0 °F 78% 30.25 in 10.0 mi Calm Calm - N/A   Clear
10:54 PM 63.0 °F - 57.0 °F 81% 30.27 in 10.0 mi Calm Calm - N/A   Clear
11:54 PM 62.1 °F - 57.0 °F 84% 30.27 in 10.0 mi Calm Calm - N/A   Clear